Weather History for KFDY - July, 2013

Change the Weather History Date:

Friday, July 5, 2013

  Actual Average Record
Temperature  
Mean Temperature 74 °F -  
Max Temperature 82 °F 80 °F 99 °F (1988)
Min Temperature 68 °F 62 °F 51 °F (1963)
Cooling Degree Days 10    
Growing Degree Days 24 (Base 50)    
Moisture  
Dew Point 67 °F    
Average Humidity 87    
Maximum Humidity 96    
Minimum Humidity 62    
Precipitation  
Precipitation 0.67 in - - ()
Sea Level Pressure  
Sea Level Pressure 30.09 in    
Wind  
Wind Speed 3 mph (SSW)    
Max Wind Speed 10 mph    
Max Gust Speed -    
Visibility 8 miles    
Events Rain    
Averages and records for this station are not official NWS values.
T = Trace of Precipitation, MM = Missing Value Source: NWS Daily Summary

Daily Weather History Graph

Daily Weather History Graph

Search for Another Location

Airport or City:

Trip Planner

Search our weather history database for the weather conditions in past years. The results will help you decide how hot, cold, wet, or windy it might be!

Date:

Astronomy

Jul. 05, 2013 Rise Set
Actual Time 6:08 AM EDT 9:09 PM EDT
Civil Twilight 5:35 AM EDT 9:43 PM EDT
Nautical Twilight 4:53 AM EDT 10:25 PM EDT
Astronomical Twilight 4:03 AM EDT 11:14 PM EDT
Moon 4:07 AM EDT (7/5) 7:03 PM EDT (7/5)
Length of Visible Light 16h 07m
Length of Day
15h 01m
Waning Crescent, 6% of the Moon is Illuminated
Jul 5
Waning Crescent
Jul 8
New
Jul 15
First Quarter
Jul 22
Full
Jul 29
Last Quarter

Hourly Weather History & Observations

Time (EDT) Temp. Heat Index Dew Point Humidity Pressure Visibility Wind Dir Wind Speed Gust Speed Precip Events Conditions
12:18 AM 69.8 °F - 68.0 °F 94% 30.11 in 6.0 mi Calm Calm - 0.00 in Rain Light Rain
12:25 AM 71.6 °F - 68.0 °F 88% 30.11 in 8.0 mi Calm Calm - 0.00 in Rain Light Rain
12:53 AM 70.0 °F - 68.0 °F 93% 30.09 in 6.0 mi ESE 3.5 mph - 0.00 in Rain Light Rain
1:43 AM 69.8 °F - 68.0 °F 94% 30.10 in 2.5 mi South 5.8 mph - 0.10 in Rain Rain
1:53 AM 69.1 °F - 66.9 °F 93% 30.07 in 1.8 mi South 4.6 mph - 0.18 in Rain Heavy Rain
2:12 AM 68.0 °F - 66.2 °F 94% 30.09 in 3.0 mi South 3.5 mph - 0.14 in Rain Rain
2:24 AM 68.0 °F - 66.2 °F 94% 30.09 in 4.0 mi Calm Calm - 0.17 in Rain Rain
2:53 AM 68.0 °F - 66.9 °F 96% 30.06 in 7.0 mi Calm Calm - 0.21 in Rain Light Rain
3:35 AM 68.0 °F - 66.2 °F 94% 30.08 in 2.0 mi West 3.5 mph - 0.09 in Rain Rain
3:42 AM 68.0 °F - 66.2 °F 94% 30.08 in 1.0 mi West 3.5 mph - 0.19 in Rain Heavy Rain
3:51 AM 68.0 °F - 66.2 °F 94% 30.08 in 2.0 mi Calm Calm - 0.23 in Rain Rain
3:52 AM 68.0 °F - 66.9 °F 96% 30.06 in 2.5 mi Calm Calm - 0.23 in Rain Rain
3:54 AM 68.0 °F - 66.2 °F 94% 30.08 in 3.0 mi Calm Calm - 0.00 in Rain Light Rain
4:20 AM 69.8 °F - 66.2 °F 88% 30.08 in 10.0 mi WNW 3.5 mph - 0.01 in   Overcast
4:27 AM 68.0 °F - 66.2 °F 94% 30.08 in 5.0 mi WNW 5.8 mph - 0.03 in Rain Rain
4:35 AM 68.0 °F - 66.2 °F 94% 30.07 in 5.0 mi Calm Calm - 0.03 in Rain Light Rain
4:42 AM 68.0 °F - 66.2 °F 94% 30.07 in 7.0 mi Calm Calm - 0.03 in Rain Light Rain
4:53 AM 68.0 °F - 66.0 °F 93% 30.05 in 10.0 mi Calm Calm - 0.03 in   Overcast
5:22 AM 68.0 °F - 66.2 °F 94% 30.08 in 10.0 mi Calm Calm - N/A   Overcast
5:30 AM 68.0 °F - 66.2 °F 94% 30.08 in 10.0 mi Calm Calm - N/A   Overcast
5:53 AM 68.0 °F - 66.9 °F 96% 30.07 in 10.0 mi South 3.5 mph - N/A   Overcast
6:20 AM 68.0 °F - 66.2 °F 94% 30.10 in 10.0 mi SW 5.8 mph - N/A   Overcast
6:53 AM 69.1 °F - 66.9 °F 93% 30.07 in 10.0 mi SW 5.8 mph - N/A   Overcast
7:40 AM 69.8 °F - 68.0 °F 94% 30.10 in 8.0 mi Calm Calm - N/A   Overcast
7:53 AM 69.1 °F - 68.0 °F 96% 30.08 in 6.0 mi South 5.8 mph - 0.00 in Rain Light Rain
8:29 AM 69.8 °F - 68.0 °F 94% 30.11 in 8.0 mi SSW 5.8 mph - 0.00 in   Overcast
8:38 AM 69.8 °F - 68.0 °F 94% 30.12 in 8.0 mi SSW 5.8 mph - 0.00 in   Overcast
8:53 AM 70.0 °F - 68.0 °F 93% 30.10 in 7.0 mi SSW 6.9 mph - 0.00 in   Overcast
9:09 AM 71.6 °F - 68.0 °F 88% 30.13 in 7.0 mi SSW 6.9 mph - N/A   Overcast
9:53 AM 72.0 °F - 68.0 °F 87% 30.11 in 6.0 mi SW 5.8 mph - N/A   Overcast
10:53 AM 72.0 °F - 68.0 °F 87% 30.12 in 7.0 mi South 9.2 mph - 0.00 in Rain Light Rain
11:53 AM 73.9 °F - 68.0 °F 82% 30.12 in 10.0 mi SW 6.9 mph - 0.02 in   Mostly Cloudy
12:53 PM 78.1 °F - 69.1 °F 74% 30.11 in 10.0 mi South 8.1 mph - N/A   Partly Cloudy
1:48 PM 77.0 °F - 68.0 °F 74% 30.12 in 10.0 mi SSW 8.1 mph - N/A   Mostly Cloudy
1:53 PM 77.0 °F - 66.0 °F 69% 30.09 in 10.0 mi South 6.9 mph - N/A   Mostly Cloudy
2:03 PM 78.8 °F - 68.0 °F 69% 30.12 in 10.0 mi South 8.1 mph - N/A   Mostly Cloudy
2:53 PM 79.0 °F - 66.9 °F 66% 30.09 in 10.0 mi SSW 9.2 mph - N/A   Mostly Cloudy
3:53 PM 81.0 °F 83.3 °F 66.9 °F 62% 30.08 in 10.0 mi SSW 8.1 mph - N/A   Partly Cloudy
4:53 PM 81.0 °F 83.3 °F 66.9 °F 62% 30.06 in 10.0 mi SSW 9.2 mph - N/A   Clear
5:53 PM 81.0 °F 83.3 °F 66.9 °F 62% 30.06 in 10.0 mi SSW 8.1 mph - N/A   Clear
6:53 PM 79.0 °F - 66.9 °F 66% 30.06 in 10.0 mi SSW 10.4 mph - N/A   Partly Cloudy
7:53 PM 77.0 °F - 66.9 °F 71% 30.06 in 10.0 mi South 6.9 mph - N/A   Clear
8:53 PM 73.9 °F - 68.0 °F 82% 30.07 in 10.0 mi South 5.8 mph - N/A   Clear
9:53 PM 73.9 °F - 68.0 °F 82% 30.08 in 10.0 mi South 4.6 mph - N/A   Clear
10:53 PM 70.0 °F - 66.9 °F 90% 30.10 in 10.0 mi South 5.8 mph - N/A   Clear
11:53 PM 70.0 °F - 66.9 °F 90% 30.10 in 10.0 mi South 6.9 mph - N/A   Clear